Tacoma, WA

5:52 AM PDT on May 26, 2018 (GMT -0700)
McChord Air Force Base

Weather History for KTCM - May, 2014

Change the Weather History Date:

Saturday, May 17, 2014

  Actual Average Record
Temperature  
Mean Temperature 59 °F -  
Max Temperature 67 °F 62 °F 92 °F (2008)
Min Temperature 49 °F 43 °F 30 °F (2011)
Degree Days  
Heating Degree Days 6    
Growing Degree Days 9 (Base 50)    
Moisture  
Dew Point 49 °F    
Average Humidity 74    
Maximum Humidity 94    
Minimum Humidity 49    
Precipitation  
Precipitation 0.00 in - - ()
Sea Level Pressure  
Sea Level Pressure 30.01 in    
Wind  
Wind Speed 7 mph (SW)    
Max Wind Speed 12 mph    
Max Gust Speed -    
Visibility 10 miles    
Events Rain    
Averages and records for this station are not official NWS values.
T = Trace of Precipitation, MM = Missing Value Source: NWS Daily Summary

Daily Weather History Graph

Daily Weather History Graph

Search for Another Location

Airport or City:

Astronomy

May. 17, 2014 Rise Set
Actual Time 5:31 AM PDT 8:41 PM PDT
Civil Twilight 4:55 AM PDT 9:18 PM PDT
Nautical Twilight 4:07 AM PDT 10:06 PM PDT
Astronomical Twilight 3:09 AM PDT 11:05 PM PDT
Moon 11:44 PM PDT (5/17) 8:21 AM PDT (5/17)
Length of Visible Light 16h 23m
Length of Day
15h 10m
Waning Gibbous, 88% of the Moon is Illuminated
May 17
Waning Gibbous
May 21
Last Quarter
May 28
New
Jun 5
First Quarter
Jun 12
Full

Hourly Weather History & Observations

Time (PDT) Temp. Dew Point Humidity Pressure Visibility Wind Dir Wind Speed Gust Speed Precip Events Conditions
12:48 AM 53.6 °F 48.2 °F 82% 30.09 in 10.0 mi South 8.1 mph - N/A   Overcast
12:58 AM 53.8 °F 48.7 °F 83% 30.10 in 10.0 mi South 8.1 mph - N/A   Overcast
1:58 AM 54.5 °F 49.6 °F 84% 30.09 in 10.0 mi South 8.1 mph - N/A   Overcast
2:58 AM 54.0 °F 50.2 °F 87% 30.08 in 10.0 mi South 8.1 mph - N/A   Overcast
3:58 AM 54.5 °F 49.5 °F 83% 30.07 in 10.0 mi South 6.9 mph - N/A   Overcast
4:58 AM 54.1 °F 49.8 °F 85% 30.07 in 10.0 mi SSW 8.1 mph - N/A   Overcast
5:58 AM 53.8 °F 50.0 °F 87% 30.06 in 10.0 mi SSW 8.1 mph - N/A   Overcast
6:13 AM 53.6 °F 50.0 °F 88% 30.06 in 10.0 mi SSW 10.4 mph - N/A   Overcast
6:32 AM 53.6 °F 50.0 °F 88% 30.06 in 10.0 mi SSW 6.9 mph - N/A Rain Light Rain
6:33 AM 53.6 °F 50.0 °F 88% 30.06 in 10.0 mi SSW 6.9 mph - N/A Rain Light Rain
6:41 AM 51.8 °F 50.0 °F 94% 30.05 in 10.0 mi SSW 5.8 mph - N/A   Overcast
6:58 AM 52.9 °F 50.2 °F 91% 30.06 in 10.0 mi SW 4.6 mph - 0.00 in   Mostly Cloudy
7:58 AM 54.1 °F 49.3 °F 84% 30.05 in 10.0 mi SSW 5.8 mph - N/A   Overcast
8:03 AM 53.6 °F 50.0 °F 88% 30.04 in 10.0 mi SSW 8.1 mph - N/A   Overcast
8:58 AM 56.1 °F 49.1 °F 77% 30.04 in 10.0 mi Variable 4.6 mph - N/A   Overcast
9:58 AM 58.8 °F 49.5 °F 71% 30.03 in 10.0 mi Variable 3.5 mph - N/A   Mostly Cloudy
10:23 AM 59.0 °F 48.2 °F 67% 30.02 in 10.0 mi Variable 5.8 mph - N/A   Overcast
10:53 AM 59.0 °F 48.2 °F 67% 30.01 in 10.0 mi SW 5.8 mph - N/A   Overcast
10:58 AM 59.4 °F 48.7 °F 68% 30.02 in 10.0 mi South 5.8 mph - N/A   Mostly Cloudy
11:58 AM 60.3 °F 49.3 °F 67% 30.01 in 10.0 mi West 8.1 mph - N/A   Overcast
12:58 PM 61.2 °F 49.1 °F 65% 30.00 in 10.0 mi WSW 9.2 mph - N/A   Overcast
1:58 PM 62.4 °F 49.6 °F 63% 29.99 in 10.0 mi Variable 3.5 mph - N/A   Overcast
2:58 PM 65.3 °F 49.8 °F 57% 29.97 in 10.0 mi West 10.4 mph - N/A   Overcast
3:58 PM 67.1 °F 48.6 °F 51% 29.94 in 10.0 mi West 8.1 mph - N/A   Scattered Clouds
4:58 PM 67.6 °F 47.8 °F 49% 29.93 in 10.0 mi Variable 5.8 mph - N/A   Clear
5:58 PM 64.9 °F 49.1 °F 56% 29.92 in 10.0 mi SW 10.4 mph - N/A   Overcast
6:58 PM 64.8 °F 47.1 °F 53% 29.91 in 10.0 mi West 9.2 mph - N/A   Partly Cloudy
7:58 PM 62.6 °F 46.9 °F 57% 29.90 in 10.0 mi WNW 11.5 mph - N/A   Partly Cloudy
8:58 PM 59.7 °F 46.4 °F 61% 29.90 in 10.0 mi West 6.9 mph - N/A   Clear
9:58 PM 58.5 °F 46.8 °F 65% 29.90 in 10.0 mi West 3.5 mph - N/A   Clear
10:58 PM 56.3 °F 47.1 °F 71% 29.90 in 10.0 mi WSW 3.5 mph - N/A   Clear
11:58 PM 49.6 °F 46.6 °F 89% 29.89 in 10.0 mi South 4.6 mph - N/A   Mostly Cloudy